Aether-8

operational
NORAD ID: 67379 Int'l Des: 2026-004 Owner: KEPLER Country: CA Constellation: kepler-communications-gen2
LEOCIRCULARRETROGRADESSO

关于 Aether-8

正在加载描述...

实时位置

正在加载3D地球...

即将过境

高度历史

Altitude vs Time

uPlot chart will show altitude changes over time

两行轨道根数

1 67379U 26004S 26095.54915603 .00001287 00000-0 14658-3 0 9994
2 67379 97.8020 95.3125 0006031 27.5657 332.5878 14.87874035 12485
Epoch: Apr 5, 2026 • Age: 10 hours

当前状态

高度 617.9 km
速度 7.55 km/s
星下点 -39.31°S, 72.43°W
发射日期 Jan 11, 2026
运行时间 0.2 years
类型 other

技术详情

分类 Payload
质量 300.00 kg
干质量 300.00 kg
总质量 300.00 kg
长度 1.00 m
直径 1.50 m
跨度 6.00 m
形状 Box+2 pan
制造商 KEPLER
平台类型 Kepler Gen2B
阶段状态 In Orbit
所有者/国家 KEPLER/CA

大型星座

Loading constellations...